Weather History for Bridgeport, CT

Change the Weather History Date:

Wednesday, March 28, 2012

  Actual Average Record
Temperature  
Mean Temperature 48 °F 43 °F  
Max Temperature 57 °F 51 °F 76 °F (1991)
Min Temperature 38 °F 35 °F 17 °F (1966)
Degree Days  
Heating Degree Days 17 22  
Month to date heating degree days 491 733  
Since 1 July heating degree days 3604 4620  
Cooling Degree Days 0 0  
Month to date cooling degree days 0 0  
Year to date cooling degree days 0 0  
Moisture  
Dew Point 35 °F    
Average Humidity 60    
Maximum Humidity 80    
Minimum Humidity 39    
Precipitation  
Precipitation 0.10 in 0.13 in 2.12 in (2005)
Month to date precipitation 0.87 3.64  
Year to date precipitation 5.43 9.53  
Snow  
Snow 0.00 in 0.10 in 1.20 in (1984)
Month to date snowfall T 4.9  
Since 1 July snowfall 13.6 26.5  
Snow Depth 0.00 in    
Sea Level Pressure  
Sea Level Pressure 29.80 in    
Wind  
Wind Speed 6 mph (South)    
Max Wind Speed 14 mph    
Max Gust Speed 17 mph    
Visibility 10 miles    
Events Rain    
T = Trace of Precipitation, MM = Missing Value Source: NWS Daily Summary

Daily Weather History Graph

Daily Weather History Graph

Search for Another Location

Airport:

Trip Planner

Search our weather history database for the weather conditions in past years. The results will help you decide how hot, cold, wet, or windy it might be!

Date:

Astronomy

Mar. 28, 2012 Rise Set
Actual Time 6:41 AM EDT 7:13 PM EDT
Civil Twilight 6:14 AM EDT 7:41 PM EDT
Nautical Twilight 5:41 AM EDT 8:14 PM EDT
Astronomical Twilight 5:07 AM EDT 8:47 PM EDT
Moon 9:53 AM EDT (3/28) 12:16 AM EDT (3/28)
Length of Visible Light 13h 27m
Length of Day
12h 32m
Waxing Crescent, 30% of the Moon is Illuminated
Mar 28
Waxing Crescent
Mar 30
First Quarter
Apr 6
Full
Apr 13
Last Quarter
Apr 21
New

Hourly Weather History & Observations

Time (EDT) Temp. Windchill Dew Point Humidity Pressure Visibility Wind Dir Wind Speed Gust Speed Precip Events Conditions
12:52 AM 39.0 °F - 19.0 °F 45% 30.15 in 10.0 mi Calm Calm - N/A   Scattered Clouds
1:52 AM 39.9 °F - 18.0 °F 41% 30.16 in 10.0 mi Calm Calm - N/A   Mostly Cloudy
2:52 AM 43.0 °F 40.3 °F 19.0 °F 38% 30.10 in 10.0 mi SSE 4.6 mph - N/A   Overcast
3:52 AM 44.1 °F 38.1 °F 32.0 °F 63% 30.05 in 10.0 mi South 11.5 mph - N/A   Partly Cloudy
4:52 AM 44.1 °F 41.5 °F 32.0 °F 63% 30.04 in 10.0 mi WSW 4.6 mph - N/A   Clear
5:52 AM 45.0 °F 39.7 °F 28.9 °F 53% 30.02 in 10.0 mi SSW 10.4 mph - N/A   Clear
6:52 AM 44.1 °F 39.0 °F 27.0 °F 51% 29.99 in 10.0 mi South 9.2 mph - N/A   Clear
7:52 AM 46.0 °F 41.4 °F 28.9 °F 51% 29.98 in 10.0 mi South 9.2 mph - N/A   Scattered Clouds
8:52 AM 48.0 °F - 33.1 °F 56% 29.92 in 10.0 mi SSW 11.5 mph - N/A   Clear
9:52 AM 50.0 °F - 34.0 °F 54% 29.88 in 10.0 mi SW 6.9 mph - N/A   Overcast
10:52 AM 51.1 °F - 35.1 °F 54% 29.83 in 10.0 mi SW 10.4 mph - N/A   Overcast
11:52 AM 53.1 °F - 34.0 °F 48% 29.78 in 10.0 mi SSW 6.9 mph - N/A   Mostly Cloudy
12:52 PM 51.1 °F - 36.0 °F 56% 29.76 in 7.0 mi South 3.5 mph - 0.01 in Rain Light Rain
1:52 PM 48.9 °F - 39.9 °F 71% 29.70 in 10.0 mi South 5.8 mph - 0.07 in   Overcast
2:52 PM 51.1 °F - 41.0 °F 68% 29.68 in 10.0 mi SW 6.9 mph - 0.02 in   Clear
3:52 PM 53.1 °F - 37.9 °F 57% 29.64 in 10.0 mi SW 6.9 mph - N/A   Clear
4:52 PM 55.0 °F - 42.1 °F 62% 29.60 in 10.0 mi SSW 3.5 mph - N/A   Clear
5:52 PM 52.0 °F - 41.0 °F 66% 29.59 in 10.0 mi ESE 5.8 mph - N/A   Clear
6:52 PM 50.0 °F - 42.1 °F 74% 29.57 in 10.0 mi ESE 3.5 mph - N/A   Clear
7:52 PM 48.0 °F - 43.0 °F 83% 29.56 in 10.0 mi ENE 4.6 mph - N/A   Clear
8:52 PM 48.9 °F - 43.0 °F 80% 29.56 in 10.0 mi NE 3.5 mph - N/A   Clear
9:52 PM 50.0 °F - 43.0 °F 77% 29.57 in 10.0 mi NNE 9.2 mph - N/A   Mostly Cloudy
10:52 PM 51.1 °F - 43.0 °F 74% 29.56 in 10.0 mi Calm Calm - 0.00 in   Mostly Cloudy
11:52 PM 48.9 °F - 43.0 °F 80% 29.57 in 10.0 mi ESE 3.5 mph - N/A   Mostly Cloudy